Orbital Elements at Epoch 2459200.5 (2020-Dec-17.0) TDB
Reference: JPL 22 (heliocentric ecliptic J2000)
Element | Value | Uncertainty (1-sigma) | Units |
e | .1492035640736386 | 6.0058e-08 | |
a | 2.565506278949713 | 1.7429e-08 | au |
q | 2.182723598477117 | 1.5784e-07 | au |
i | 4.525460442183282 | 6.2049e-06 | deg |
node | 168.0303897449713 | 4.5306e-05 | deg |
peri | 185.1211830367556 | 4.744e-05 | deg |
M | 188.5650841088749 | 1.4542e-05 | deg |
tp | 2459915.251092188161 (2022-Dec-01.75109219) | 6.4912e-05 | TDB |
period | 1500.921745434581 4.11 | 1.5295e-05 4.188e-08 | d yr |
n | .2398526113003744 | 2.4443e-09 | deg/d |
Q | 2.948288959422309 | 2.003e-08 | au |
|
| | Orbit Determination Parameters
Additional Information
|